sat.trackr.live / text

‹ back to catalog

STARLINK-32229

NORAD 60436 · 2024-144M

PAYLOAD ACTIVE UNKNOWN

§ Identity

Operator
Country
US
Launch date
2024-08-12
Launch site
AFETR
Launch vehicle
Mass (kg)
RCS (m²)

Purposes: comms

External: N2YO · Heavens-Above · Gunter

§ Orbital elements

Epoch: 2026-09-21T13:44:40.419456Z

Period
93.85 min
Inclination
53.1624°
Eccentricity
0.0001175
Mean motion
15.34399875 rev/d
Perigee alt
461.9 km
Apogee alt
463.5 km
Semi-major
6,840.8 km
B*
1.2560e-4
RAAN
22.7457°
Arg perigee
64.9258°
Mean anomaly
295.1867°
Rev number
11,936

§ Raw data

STARLINK-322291 60436U 24144M   26264.57269004  .00003870  00000+0  12560-3 0  99912 60436  53.1624  22.7457 0001175  64.9258 295.1867 15.34399875119369

JSON: /api/v1/satellites/60436 · /tle

For live sub-satellite position, see the globe view (requires WebGL).

§ Visibility from observer

Set your observer location to see the next 7 days of passes ≥ 10°. The values pass through the URL so the page stays shareable.

No JS? Fill the form by hand. The geolocation button needs JavaScript.